SCP
0 0 0 0 0 0 0 0 0 0 0 0 0 0 0 0 0 0 0 0 0 0 0 0 0 0 0 0 0 0 0 0 0 0 0 0 0 0
0 0 0 0 0 0 0 0 0 0 0 0 0 0 0 0 0 0 0 0 0 0 0 0 0 0 0 0 0 0 0 0 0 0 0 0 0 0
0 0 0 0 0 0 0 0 0 0 0 0 0 0 0 0 0 0 0 0 0 0 0 0 0 0 0 0 0 0 0 0 0 0 0 0 0 0
0 0 0 0 0 0 0 0 0 0 0 0 0 0 0 0 0 0 0 0 0 0 0 0 0 0 0 0 0 0 0 0 0 0 0 0 0 0
0 0 0 0 0 0 0 0 0 0 0 0 0 0 0 0 0 0 0 0 0 0 0 0 0 0 0 0 -0 -0 0 0 0 0 0 0 0 0
0 0 0 0 0 0 0 0 0 0 0 0 0 0 0 0 0 0 0 0 0 0 0 0 0 0 0 0 -0 -0 -0 0 0 0 0 0 0 0
0 0 0 0 0 0 0 0 0 0 0 0 0 0 0 0 0 0 0 0 0 0 0 0 0 0 0 0 0 0 -0 -0 0 0 0 0 0 0
0 0 0 0 0 0 0 0 0 0 0 0 0 0 0 0 0 0 0 0 0 0 0 0 0 0 0 0 0 0 0 0 0 0 0 0 0 0
0 0 0 0 0 0 0 0 0 0 0 0 0 0 0 0 0 0 0 0 0 0 0 0 0 0 0 0 0 0 0 0 0 0 0 0 0 0
0 0 0 0 0 0 0 0 0 0 0 0 0 0 0 0 0 0 0 0 0 0 0 0 0 0 0 0 0 0 0 0 0 0 0 0 0 0
0 0 0 0 0 0 0 0 0 0 0 0 0 0 0 0 0 0 0 0 0 0 0 0 0 0 0 0 0 0 0 0 0 0 0 0 0 0
0 0 0 0 0 0 0 0 0 0 0 0 0 0 0 0 0 0 0 0 0 0 0 0 0 0 0 0 0 0 0 0 0 0 0 0 0 0
0 0 0 0 0 0 0 0 0 0 0 0 0 0 0 0 0 0 0 0 0 0 0 0 0 0 0 0 0 0 0 0 0 0 0 0 0 0
0 0 0 0 0 0 0 0 0 0 0 0 0 0 0 0 0 0 0 0 0 0 0 0 0 0 0 0 0 0 0 0 0 0 0 0 0 0
0 0 0 0 0 0 0 0 0 0 0 0 0 0 0 0 0 0 0 0 0 0 0 0 0 0 0 0 0 0 0 0 0 0 0 0 0 0
0 0 0 0 0 0 0 0 0 0 0 0 0 0 0 0 0 0 0 0 0 0 0 0 0 0 0 0 0 0 0 0 0 0 0 0 0 0
0 0 0 0 0 0 0 0 0 0 0 0 0 0 0 0 0 0 0 0 0 0 0 0 0 0 0 0 0 0 0 0 0 0 0 0 0 0
0 0 0 0 0 0 0 0 0 0 0 0 0 0 0 0 0 0 0 0 0 0 0 0 0 0 0 0 0 0 0 0 0 0 0 0 0 0
0 0 0 0 0 0 0 0 0 0 0 0 0 0 0 0 0 0 0 0 0 0 0 0 0 0 0 0 0 0 0 0 0 0 0 0 0 0
0 0 0 0 0 0 0 0 0 0 0 0 0 0 0 0 0 0 0 0 0 0 0 0 0 0 0 0 0 0 0 0 0 0 0 0 0 0
0 0 0 0 0 0 0 0 0 0 0 0 0 0 0 0 0 0 0 0 0 0 0 0 0 0 0 0 0 0 0 0 0 0 0 0 0 0
0 0 0 0 0 0 0 0 0 0 0 0 0 0 0 0 0 0 0 0 0 0 0 0 0 0 0 0 0 0 0 0 0 0 0 0 0 0
0 0 0 0 0 0 0 0 0 0 0 0 0 0 0 0 0 0 0 0 0 0 0 0 0 0 0 0 0 0 0 0 0 0 0 0 0 0
Wind_Speed
2 1 1 0 1 1 2 2 3 4 4 3 2 3 3 5 6 6 8 13 13 12 12 12 12 12 11 11 10 9 9 8 8 7 7 6 6 5
3 3 2 1 1 0 1 1 1 2 4 3 3 3 4 5 6 6 8 11 11 10 10 9 9 9 9 9 8 7 7 7 6 6 5 5 4 4
4 4 4 3 1 1 1 2 2 4 6 5 4 4 4 5 5 5 5 5 7 10 9 8 7 7 7 6 6 5 5 5 5 5 4 4 4 4
6 6 5 4 4 3 2 4 4 5 7 9 5 4 5 5 5 4 4 4 5 9 8 7 6 5 5 4 4 4 4 4 4 4 5 5 5 5
7 6 6 6 5 4 4 5 5 6 6 8 6 4 4 4 4 4 5 3 4 7 7 7 6 5 4 5 5 5 5 5 5 5 5 6 7 7
8 7 7 7 6 5 5 6 6 7 7 7 6 5 5 5 4 4 4 3 3 4 4 5 6 7 6 6 6 6 6 6 6 7 7 7 7 8
8 8 9 9 10 7 5 6 6 6 6 6 6 6 5 4 4 3 3 3 3 2 3 5 6 5 7 9 9 8 8 7 7 8 8 9 9 9
8 8 8 9 10 10 10 9 7 5 6 5 5 6 5 4 3 2 2 2 3 3 2 2 3 3 4 4 6 8 8 8 9 9 10 10 11 11
7 7 7 7 7 8 9 8 10 8 5 4 6 5 5 4 2 2 2 1 1 1 2 1 2 2 3 3 8 7 8 9 9 10 10 11 12 12
8 8 8 8 8 5 7 8 8 7 5 5 5 4 4 3 1 1 1 2 3 2 1 2 2 2 2 2 9 9 9 10 10 11 11 12 12 13
8 8 7 8 8 6 5 7 7 6 7 7 6 5 4 2 3 2 2 2 1 2 1 2 2 2 3 3 6 11 11 11 11 12 12 12 13 12
6 7 10 8 7 7 4 5 6 5 4 5 4 4 4 3 3 3 3 2 1 0 1 2 3 3 3 2 2 4 8 11 14 14 14 14 13 10
5 5 7 7 7 7 5 5 4 2 2 2 3 3 3 2 2 1 2 3 3 2 2 3 4 4 4 4 4 4 5 5 7 9 13 15 14 12
4 5 6 5 5 5 4 3 3 4 1 1 1 1 1 1 2 2 2 3 3 4 4 5 5 5 6 6 5 4 5 6 6 7 7 8 12 15
4 5 3 1 1 1 2 2 4 2 1 1 1 1 1 1 1 1 2 3 4 4 4 5 6 6 7 7 7 6 7 7 6 6 7 7 8 8
2 3 4 3 3 1 3 3 1 2 2 1 1 1 1 1 2 2 2 3 3 3 4 5 5 7 7 8 8 8 8 8 7 7 8 8 9 10
3 2 2 2 3 2 1 1 0 1 1 1 2 2 2 2 2 2 3 4 4 4 4 4 5 6 8 9 9 8 8 8 8 7 8 10 10 10
6 3 1 1 1 1 1 1 1 1 1 2 2 2 3 3 3 3 4 5 5 5 5 5 5 6 7 7 8 9 9 9 9 8 10 11 11 10
6 3 2 2 2 2 2 2 1 1 2 3 3 3 3 4 4 4 5 5 6 6 6 6 6 7 9 9 6 6 8 9 10 10 10 10 12 11
5 3 2 2 3 3 3 3 2 3 3 4 4 4 5 5 5 6 5 6 7 7 7 7 7 7 8 10 11 10 10 10 10 11 11 11 12 12
4 3 3 3 3 3 3 3 4 4 4 5 5 5 5 6 6 6 6 5 7 8 9 8 6 5 8 9 11 11 10 9 10 10 12 13 13 13
5 4 4 4 4 5 5 5 5 5 5 6 6 6 6 7 7 8 8 8 8 9 9 9 8 8 9 11 12 13 13 11 10 14 16 15 13 13
5 5 5 5 6 6 6 6 7 6 6 6 6 6 7 7 7 8 8 9 9 10 10 10 9 9 10 11 12 12 15 14 12 11 11 12 18 21
Wind_Direction
5 348 316 308 251 219 191 190 176 151 123 109 90 65 75 78 67 80 86 88 88 84 83 84 86 89 92 93 95 98 103 108 115 120 124 128 131 137
25 25 9 20 54 144 169 171 205 141 120 109 101 91 83 94 87 87 91 98 92 91 91 91 95 98 100 102 106 110 113 118 125 129 135 140 145 157
39 47 46 38 47 94 117 123 115 116 116 111 106 104 99 98 98 98 104 109 105 102 102 103 103 104 107 114 120 124 127 133 141 151 160 173 187 201
44 48 50 61 62 60 82 98 98 104 122 121 118 115 108 110 107 110 109 106 108 109 111 113 118 125 135 142 150 155 157 161 170 187 200 212 221 230
47 48 51 64 69 71 79 94 104 109 112 121 120 118 118 119 124 117 110 112 126 134 147 154 155 160 165 170 176 183 191 198 208 216 222 231 239 246
54 53 52 57 63 76 87 97 107 114 119 123 126 132 129 135 139 135 137 150 142 147 151 162 165 184 189 192 196 201 208 217 225 231 235 240 244 247
64 65 64 62 52 49 69 93 112 122 128 128 128 128 129 144 144 150 128 139 147 165 179 179 178 191 188 199 206 208 216 225 233 238 241 243 245 247
64 73 83 78 77 70 65 64 67 94 106 116 120 124 131 133 127 142 142 155 155 160 215 194 188 199 201 198 165 188 216 229 236 240 242 244 247 249
58 61 68 76 82 91 93 98 78 67 68 83 103 108 120 114 129 147 127 72 64 126 243 220 203 218 218 145 158 197 221 233 240 244 246 248 250 251
60 63 69 68 55 57 91 88 84 75 66 71 81 82 84 82 109 129 161 187 193 185 239 267 243 248 237 190 175 202 222 235 243 247 249 251 252 254
63 54 54 71 39 11 81 91 90 91 88 81 72 76 67 28 330 274 237 247 202 153 189 281 282 276 261 234 186 199 218 229 237 243 247 250 252 255
84 83 64 48 29 11 65 84 88 87 95 116 128 163 172 170 224 284 306 309 313 314 92 290 296 294 279 250 237 216 225 225 229 236 240 244 246 254
72 78 71 47 33 20 19 60 58 20 118 143 146 153 161 167 178 174 330 326 329 334 359 303 305 301 297 290 277 269 268 261 243 240 234 234 234 240
51 61 71 45 30 18 31 40 320 287 237 109 100 100 88 78 66 28 358 335 322 313 315 311 300 304 299 294 291 286 281 279 278 278 273 238 234 236
49 49 27 340 269 168 142 282 273 261 359 24 46 33 34 38 299 229 219 230 239 249 257 270 280 288 289 292 296 297 293 286 279 281 282 279 276 267
130 153 204 236 239 223 206 218 248 1 344 336 339 313 266 239 250 269 272 262 259 244 226 242 257 275 280 288 289 290 290 290 291 287 288 286 280 275
334 251 210 190 197 181 156 101 220 202 224 280 290 280 268 270 276 280 285 280 279 284 278 256 243 245 259 271 282 286 290 289 289 292 287 284 282 280
295 265 260 256 268 291 279 231 225 272 299 280 278 283 286 284 282 278 275 279 284 287 290 291 288 280 269 254 246 273 284 290 294 290 286 285 287 287
260 260 268 281 280 269 269 280 299 319 301 283 284 287 285 282 279 280 282 284 285 286 289 290 289 290 292 294 281 252 284 293 293 290 288 288 290 292
244 256 262 266 270 276 278 281 279 267 258 266 275 280 283 282 281 282 282 287 290 291 288 284 283 290 298 302 302 291 261 271 283 289 292 292 289 285
250 250 257 263 266 266 268 271 275 275 277 279 275 275 276 277 279 281 282 282 278 279 283 286 295 280 281 279 280 282 284 255 253 269 284 289 291 292
260 260 262 268 266 265 263 260 256 257 256 259 265 268 271 274 276 279 284 285 282 283 288 289 284 274 275 278 285 290 291 290 269 245 244 254 274 287
258 265 264 258 255 256 259 262 264 266 268 271 272 270 272 272 275 277 278 281 285 287 288 288 288 285 284 285 287 290 293 294 292 289 277 251 238 247